User: anonymous   Login
Location: Three Oaks Observatory
(31.1535°N, 83.5955°W)
Time: 10:20:47
(UTC-04:00)
Language:

FALCONSAT 3 - Orbit

View from above orbital plane
View from above orbital plane
View from above satellite
View from above satellite

Ground track
Ground track

The orbit data is extracted from the following two-line orbital elements,

1 30776U 07006E   19291.72308904  .00002674  00000-0  74380-4 0  9996
2 30776  35.4360  31.6225 0001986 155.3368 204.7454 15.36634320699463
Epoch (UTC): 18 October 2019 17:21:14
Eccentricity: 0.0001986
inclination: 35.4360°
perigee height: 455 km
apogee height: 457 km
right ascension of ascending node: 31.6225°
argument of perigee: 155.3368°
revolutions per day: 15.36634320
mean anomaly at epoch: 204.7454°
orbit number at epoch: 69946

The dashed part of the orbit path shows where the satellite is in the earth's shadow,  

DLR